Location: Maiden
(35.5760°N, 81.2120°W)
Time: 08:10:14
(UTC-04:00)

S-56A Canister/Altair - All Passes

Search period start: 10 August 2020 00:00
Search period end: 20 August 2020 00:00
Orbit: 633 x 2499 km, 38.9° (Epoch: 09 August)

Date Brightness Start Highest point End Pass type
(mag) Time Alt. Az. Time Alt. Az. Time Alt. Az.
10 Aug - 06:10:50 10° SSW 06:16:10 37° SE 06:23:49 10° ENE visible
10 Aug - 08:13:04 10° WSW 08:20:08 86° NNW 08:31:13 10° ENE daylight
10 Aug - 10:16:57 10° W 10:25:59 76° N 10:39:27 10° E daylight
10 Aug - 12:21:16 10° WNW 12:32:24 78° SSW 12:47:18 10° ESE daylight
10 Aug - 14:26:45 10° WNW 14:38:24 39° SW 14:51:45 10° SSE daylight
10 Aug - 16:40:19 10° WSW 16:43:20 11° SW 16:46:22 10° SW daylight
11 Aug - 05:38:48 10° SSW 05:43:37 30° SE 05:50:10 10° E visible
11 Aug - 07:40:38 10° WSW 07:47:11 89° SSE 07:57:27 10° ENE daylight
11 Aug - 09:44:20 10° W 09:52:43 74° N 10:05:30 10° E daylight
11 Aug - 11:48:28 10° WNW 11:58:57 82° SSW 12:13:34 10° ESE daylight
11 Aug - 13:53:32 10° WNW 14:04:59 43° SW 14:18:40 10° SSE daylight
11 Aug - 16:04:11 10° WSW 16:10:06 14° SW 16:16:12 10° SSW daylight
12 Aug - 05:06:55 10° S 05:11:07 24° SE 05:16:31 10° E visible
12 Aug - 07:08:14 10° WSW 07:14:20 83° SSE 07:23:48 10° ENE daylight
12 Aug - 09:11:45 10° W 09:19:32 73° N 09:31:33 10° E daylight
12 Aug - 11:15:44 10° WNW 11:25:34 86° SSW 11:39:46 10° ESE daylight
12 Aug - 13:20:27 10° WNW 13:31:33 47° SW 13:45:26 10° SSE daylight
12 Aug - 15:29:28 10° W 15:36:51 16° SW 15:44:41 10° SSW daylight
13 Aug - 04:35:11 10° S 04:38:39 18° SE 04:42:49 10° E visible
13 Aug - 06:35:53 10° WSW 06:41:33 75° SSE 06:50:12 10° ENE daylight
13 Aug - 08:39:14 10° W 08:46:26 72° N 08:57:40 10° E daylight
13 Aug - 10:43:04 10° WNW 10:52:15 90° NNE 11:05:55 10° ESE daylight
13 Aug - 12:47:30 10° WNW 12:58:10 51° SSW 13:12:05 10° SE daylight
13 Aug - 14:55:19 10° W 15:03:34 19° SW 15:12:37 10° S daylight
14 Aug - 04:03:47 10° SSE 04:06:12 13° SE 04:08:53 10° ESE visible
14 Aug - 06:03:33 10° SW 06:08:52 67° SSE 06:16:43 10° ENE visible
14 Aug - 08:06:44 10° W 08:13:25 72° N 08:23:50 10° E daylight
14 Aug - 10:10:28 10° WNW 10:19:01 86° NNE 10:32:02 10° ESE daylight
14 Aug - 12:14:37 10° WNW 12:24:48 55° SSW 12:38:38 10° SE daylight
14 Aug - 14:21:32 10° W 14:30:16 22° SW 14:40:12 10° S daylight
15 Aug - 05:31:17 10° SW 05:36:14 57° SSE 05:43:19 10° ENE visible
15 Aug - 07:34:16 10° W 07:40:29 72° N 07:50:06 10° ENE daylight
15 Aug - 09:37:54 10° WNW 09:45:51 82° NNE 09:58:08 10° ESE daylight
15 Aug - 11:41:50 10° WNW 11:51:29 59° SSW 12:05:05 10° SE daylight
15 Aug - 13:48:01 10° W 13:56:59 24° SW 14:07:33 10° S daylight
16 Aug - 04:59:02 10° SW 05:03:41 47° SSE 05:10:00 10° ENE visible
16 Aug - 07:01:50 10° W 07:07:37 74° N 07:16:27 10° ENE daylight
16 Aug - 09:05:23 10° WNW 09:12:46 78° NNE 09:24:16 10° E daylight
16 Aug - 11:09:07 10° WNW 11:18:13 63° SSW 11:31:29 10° SE daylight
16 Aug - 13:14:42 10° W 13:23:42 27° SW 13:34:43 10° S daylight
17 Aug - 04:26:50 10° SW 04:31:10 39° SE 04:36:45 10° E visible
17 Aug - 06:29:25 10° W 06:34:50 76° N 06:42:56 10° ENE daylight
17 Aug - 08:32:55 10° WNW 08:39:45 75° N 08:50:25 10° E daylight
17 Aug - 10:36:30 10° WNW 10:45:02 67° SSW 10:57:49 10° SE daylight
17 Aug - 12:41:34 10° W 12:50:26 30° SW 13:01:43 10° SSE daylight
18 Aug - 03:54:40 10° SSW 03:58:41 31° SE 04:03:33 10° E visible
18 Aug - 05:57:00 10° WSW 06:02:06 80° NNW 06:09:31 10° ENE visible
18 Aug - 08:00:28 10° WNW 08:06:49 72° N 08:16:39 10° E daylight
18 Aug - 10:03:56 10° WNW 10:11:55 72° SSW 10:24:07 10° ESE daylight
18 Aug - 12:08:35 10° W 12:17:12 32° SW 12:28:35 10° SSE daylight
19 Aug - 03:22:34 10° SSW 03:26:14 25° SE 03:30:23 10° E visible
19 Aug - 05:24:35 10° WSW 05:29:26 86° NNW 05:36:13 10° ENE visible
19 Aug - 07:28:01 10° WNW 07:33:56 69° N 07:42:57 10° E daylight
19 Aug - 09:31:24 10° WNW 09:38:51 77° SSW 09:50:24 10° ESE daylight
19 Aug - 11:35:42 10° W 11:44:01 35° SW 11:55:21 10° SSE daylight
